Regional Weather Roundup
Issued by NWS Pendleton, OR

Home | Current Version | Previous Version | Text Only | Print | Product List | Glossary On
Versions: 1 2 3 4 5 6 7 8 9 10 11 12 13 14 15 16 17 18 19 20 21 22 23 24 25 26 27 28 29 30 31 32 33 34 35 36 37 38 39 40 41 42 43 44 45 46 47 48 49 50
969
ASUS46 KPDT 250725
RWRPDT
PENDLETON REGIONAL WEATHER ROUNDUP
NATIONAL WEATHER SERVICE PENDLETON OREGON
1200 AM PDT THU MAY 25 2017

NOTE: FAIR INDICATES FEW OR NO CLOUDS BELOW 12,000 FEET WITH NO
SIGNIFICANT WEATHER AND/OR OBSTRUCTIONS TO VISIBILITY.

# INDICATES UNOFFICIAL STATION AND DATA

WAZ520-250810-
EAST SLOPES OF WASHINGTON CASCADES

CITY            SKY/WX      TMP DP  RH  WIND    PRES   REMARKS
#BULLFROG       N/A         48  36  63  W7      N/A
#CLE ELUM HS    N/A         47  35  63  W3      29.81F
#CLE ELUM LAKE  N/A         42  35  76  N1      29.93F
#EASTON DOT     N/A         44  36  73  N1      N/A
#ELK HTS DOT    N/A         47  47  100 SW3     N/A
#GLENWOOD       N/A         43  39  86  CALM    29.82S
#NELSON 3SW     N/A         42  35  76  CALM    30.06F
#NILE           N/A         48  35  60  W3      29.13S
#TEANAWAY 4NE   N/A         43  37  79  W2      N/A
#TROUT LAKE 1NE N/A         49  40  71  CALM    29.84S
#TROUT LAKE 1E  N/A         47  39  74  CALM    29.88S
$$

WAZ521-250810-
SIMCOE HIGHLANDS

CITY            SKY/WX      TMP DP  RH  WIND    PRES   REMARKS
#BICKLETON HS   N/A         48  37  65  N9      29.79F
#CENTERVILLE 1SWN/A         47  39  74  SW10    29.80F
#GOLDENDALE 1NE N/A         49  31  50  SW3     N/A
#GOLDENDALE 4W  N/A         49  14  24  W7      29.88F
#GOODNOE HILLS  N/A         51  42  71  W14     N/A
#LYLE 6NE       N/A         48  41  77  SW6     29.82F
#PITT 4SE       N/A         43  38  82  W3      29.88S
$$

WAZ026-250810-
KITTITAS VALLEY

CITY            SKY/WX      TMP DP  RH  WIND    PRES   REMARKS
ELLENSBURG AP   MOCLDY      50  36  58  NW18    29.83F
YTC-OPS AREA    CLEAR       44  32  62  N29     29.82S WCI 34
#ELLENSBURG CWU N/A         49  36  61  NW13    29.76F WCI 44
#ELLENSBURG 3NE N/A         48  37  65  N9      27.92F
#KITTITAS 4N    N/A         46  35  65  W10     29.84F
#KITTITAS 3S    N/A         49  38  66  NW7     29.80S
#MANASTASH RDG  N/A         45  45  100 N12     N/A    WCI 39
#ROCKY CYN DOT  N/A         49  35  58  W12     N/A    WCI 44
#RYEGRASS DOT   N/A         44  34  68  SW13    N/A    WCI 38
#THORP 6N       N/A         45  36  70  NW15G26 29.85F WCI 38
$$

WAZ027-250810-
YAKIMA VALLEY

CITY            SKY/WX      TMP DP  RH  WIND    PRES   REMARKS
SUNNYSIDE AP    PTCLDY      53  35  50  W9      29.80F
YAKIMA AIRPORT  MOCLDY      58  36  44  N9      29.82F
YAKIMA-VAGABOND MOCLEAR     54  34  47  N13     29.81F
#DONALD 2NE     N/A         54  14  20  W3      28.67R
#GRANDVIEW      N/A         55  35  47  W2      29.80F
#MABTON         N/A         57  39  51  W5      29.81S
#MOXEE 2E       N/A         54  N/A N/A NW7     29.86S
#NACHES 2SW     N/A         51  37  59  W12     29.83S
#OUTLOOK DOT    N/A         57  33  40  W6      29.77F
#PARKER DOT     N/A         56  35  45  S6      29.81S
#TERRACE HTS    N/A         53  35  50  CALM    29.77S
#TOPPENISH      N/A         57  37  47  CALM    29.72F
#I82 S UMTANUM RN/A         49  32  52  E1      N/A
#UNION GAP DOT  N/A         56  35  45  N7      29.84F
#WEST VALLEY    N/A         55  36  49  N8      29.78F
#W YAKIMA       N/A         54  36  50  NE1     29.80S
#WHITE SWAN 5E  N/A         53  39  59  CALM    29.80F
#WILEY CITY 3W  N/A         50  32  50  CALM    29.78F
#ZILLAH DOT     N/A         56  35  45  W5      N/A
$$

WAZ028-250810-
LOWER COLUMBIA BASIN...WASHINGTON

CITY            SKY/WX      TMP DP  RH  WIND    PRES   REMARKS
6HR MIN TEMP:   57; 6HR MAX TEMP:   70;

PASCO           MOCLDY      56  38  51  NW14    29.78F
PROSSER AWOS    N/A         55  37  51  W9      29.84S
RICHLAND AWOS   CLOUDY      58  36  44  NW6     29.78F
#BENTON CITY    N/A         56  37  49  W2      29.69R
#CONNELL 5N     N/A         49  39  68  W1      29.76S
#CONNELL 5NW    N/A         49  41  74  NW1     29.71S
#ELTOPIA 6NW    N/A         53  40  61  CALM    28.77S
#KAHLOTUS       N/A         53  38  57  N2      29.75S
#KENNEWICK 3S   N/A         55  37  51  CALM    29.78S
#PATERSON       N/A         57  37  47  N7      29.78R
#PROSSER DOT    N/A         56  36  47  SW7     29.81F
#SAGEMOOR 2W    N/A         55  38  53  W8      29.63S
#TOUCHET 2S     N/A         54  40  59  W1      29.76R
#WEST PASCO     N/A         58  38  47  W5      29.75S
$$

WAZ029-250810-
FOOTHILLS OF THE BLUES...WASHINGTON

CITY            SKY/WX      TMP DP  RH  WIND    PRES   REMARKS
WALLA WALLA AP  PTCLDY      54  39  57  S7      29.79R
#CLYDE 6NW      N/A         56  37  49  N6      29.74S
#LOWDEN 2SE     N/A         52  40  63  CALM    29.75S
#PLEASANT VIEW 1N/A         53  36  52  W10     29.78S
#PRESCOTT       N/A         51  41  68  CALM    29.75R
#WHITMAN COLLEGEN/A         54  40  59  CALM    29.82R
#WAITSBURG 6SSE N/A         48  38  68  SE2     29.78F
#WALLA WALLA 5E N/A         52  39  61  S7      N/A
#WHITMAN MISSIONN/A         53  41  64  CALM    29.79R
$$

WAZ030-250810-
BLUE MOUNTAINS...WASHINGTON

CITY            SKY/WX      TMP DP  RH  WIND    PRES   REMARKS
#DIXIE 5SE      N/A         54  33  45  SW9     29.72S
$$

ORZ009-041-WAZ024-250810-
COLUMBIA RIVER GORGE

CITY            SKY/WX      TMP DP  RH  WIND    PRES   REMARKS
HOOD RIVER AP   PTCLDY      50  41  71  CALM    29.88F
THE DALLES AP   PTCLDY      55  41  59  NW7     29.85S
#ARLINGTON AIRPON/A         53  43  69  W6      29.82F
#CELILO DOT     N/A         57  39  51  W6      N/A
#LYLE           N/A         56  44  64  NW12    29.87S
#MARYHILL       N/A         53  39  59  N7      N/A
#MURDOCK        N/A         56  42  59  NW15G24 29.80F
#RUFUS DOT      N/A         58  42  55  W16     N/A
#SMITHVILLE     N/A         56  42  59  W12     29.79F

$$

ORZ510-250810-
NORTH CENTRAL OREGON

CITY            SKY/WX      TMP DP  RH  WIND    PRES   REMARKS
#ANTELOPE       N/A         43  36  76  CALM    29.70S
#CHENOWITH 1W   N/A         51  35  54  NW14    N/A
#DUFUR          N/A         44  38  79  CALM    29.80F
#DUFUR 9E       N/A         47  38  71  W6      29.90F
#GRASS VALLEY 1SN/A         47  38  71  NW5     29.87F
#KENT DOT       N/A         42  33  70  W8      N/A
#MAUPIN SCHOOL  N/A         52  41  66  CALM    29.90F
#MORO SCHOOL    N/A         49  42  77  NW12    29.93S WCI 44
#SHANIKO 5WSW   N/A         42  32  67  N3      N/A
#SHANIKO 4NW    N/A         41  35  79  W5      29.85S
#TYGH VALLEY 2NEN/A         50  39  66  CALM    29.82F
#WAPANITIA AIRPON/A         47  37  68  W3      29.85S
#WASCO DOT      N/A         52  39  61  W7      N/A
#WASCO 5NE      N/A         49  39  68  W7      29.82S
$$

ORZ511-250810-
CENTRAL OREGON

CITY            SKY/WX      TMP DP  RH  WIND    PRES   REMARKS
BEND AIRPORT    CLEAR       39  32  76  CALM    29.82S
MADRAS AIRPORT  PTCLDY      45  34  65  NW10    29.88F
PRINEVILLE AP   CLEAR       43  36  76  MISG    29.86F
REDMOND AIRPORT CLEAR       34  28  78  CALM    29.85F
#ASHWOOD SCHOOL N/A         46  39  76  CALM    29.83F
#BEND 1SW       N/A         39  33  79  CALM    N/A
#BEND-AWBREY    N/A         43  34  70  CALM    29.77S
#BEND-KIM LN    N/A         37  30  75  CALM    29.73R
#CULVER         N/A         43  36  76  NW2     29.74S
#CULVER 8W      N/A         41  35  79  CALM    29.87F
#MADRAS 4S      N/A         47   9  21  N9      29.95F
#POWELL BUTTE   N/A         43  36  76  CALM    29.83F
#PRINEVILLE     N/A         45  35  68  CALM    29.89R
#PRINEVILLE 3N  N/A         43  36  76  NW6     29.79F

$$


ORZ509-250810-
EAST SLOPES OF OREGON CASCADES

CITY            SKY/WX      TMP DP  RH  WIND    PRES   REMARKS
SISTERS AWOS    N/A         45  34  65  CALM    29.84F
#CAMP SHERMAN   N/A         39  32  76  CALM    29.87F
#LA PINE 4SW    N/A         37  27  67  CALM    29.91S
#LA PINE 4NW    N/A         34  28  78  CALM    29.79S
#LAVA BUTTE DOT N/A         36  30  79  CALM    N/A
#SISTERS 3N     N/A         41  28  59  CALM    29.88S
#SUNRIVER       N/A         38  32  79  CALM    29.75F
#TUMALO 3W      N/A         41  32  70  CALM    29.67S
#WANOGA BUTTE D N/A         34  30  85  CALM    N/A

$$

ORZ044-250810-
LOWER COLUMBIA BASIN...OREGON

CITY            SKY/WX      TMP DP  RH  WIND    PRES   REMARKS
HERMISTON       MOCLDY      53  41  64  SW7     29.80S
#BOARDMAN SCHOOLN/A         58  42  55  SW3     29.80S
#BOARDMAN 8SW   N/A         54  44  69  W6      29.80F
#ECHO 8SW       N/A         51  40  66  SW3     29.83S
#IONE SCHOOL    N/A         54  38  55  SW3     29.82F
#UMATILLA       N/A         56  37  49  W5      29.72S
$$

ORZ507-250810-
NORTHERN FOOTHILLS OF THE BLUES

CITY            SKY/WX      TMP DP  RH  WIND    PRES   REMARKS
PENDLETON AIRPT MOCLDY      48  38  68  W9      29.80S
#ADAMS 3WNW     N/A         48  39  71  CALM    29.78S
#ATHENA         N/A         52  37  56  CALM    29.81R
#CAYUSE         N/A         52  43  71  W1      29.77R
#HELIX SCHOOL   N/A         48  38  68  W1      29.77S
#HELIX 3N       N/A         47  36  65  W2      29.79R
#HOLDMAN 5SE    N/A         48  36  63  CALM    29.81R
#HOLDMAN 6E     N/A         48  36  63  CALM    29.59R
#M-F FERNDALE   N/A         54  37  52  CALM    29.77S
#M-F GROVE ELEM N/A         54  36  50  CALM    29.78S
#M-FREEWATER 5SEN/A         52  42  69  CALM    29.80R
#PENDLETON DNTN N/A         56  32  40  CALM    29.80S
#PDT AQUATIC CTRN/A         54  33  45  W6      29.85R
#PDT SUNRIDGE   N/A         54  38  55  W1      29.82R
#PENDLETON 7NW  N/A         53  39  59  SW5     26.20S
#PILOT ROCK 1S  N/A         51  35  54  CALM    29.83S
#PILOT ROCK     N/A         50  37  61  CALM    29.84S
#TUTUILLA       N/A         52  40  63  CALM    29.80R
#UMAPINE 2E     N/A         54  41  61  CALM    29.76S
#WESTON SCHOOL  N/A         53  38  57  CALM    29.77R

$$

ORZ508-250810-
SOUTHERN FOOTHILLS OF THE BLUES

CITY            SKY/WX      TMP DP  RH  WIND    PRES   REMARKS
LEXINGTON       PTCLDY      52  39  61  W7      29.86S
#AJAX           N/A         49  33  54  S5      30.01S
#CONDON 5W      N/A         44  36  73  NW9     29.83F
#FOSSIL SCHOOL  N/A         48  38  68  NW5     29.80F
#HEPPNER EOC    N/A         50  38  63  W1      29.74F
#HEPPNER 4NE    N/A         47  38  71  W5      29.80S
#LEXINGTON 2SE  N/A         53  39  59  CALM    29.80F
#MIKKALO        N/A         51  38  61  W3      29.95F
#OLEX 4N        N/A         53  41  64  W10     29.82F
#RUGGS 5NE      N/A         47  37  68  W7      30.01S
#RUGGS 2SW      N/A         48  38  68  W3      29.82S

$$

ORZ502-503-250810-
BLUE MOUNTAINS

CITY            SKY/WX      TMP DP  RH  WIND    PRES   REMARKS
MEACHAM         CLOUDY      46  29  51  CALM    29.81S
#GRANITE        N/A         40  28  62  CALM    29.47F
#GREENHORN 9SW  N/A         40  34  79  CALM    29.85S
#HARDMAN 10S    N/A         40  35  82  CALM    29.88F
#LONG CREEK HS  N/A         45  39  79  CALM    N/A
#PIKES PEAK     N/A         45  33  63  N7      27.99S
#SUMMERVILLE 5NWN/A         48  38  68  N1      29.83S
#TOLLGATE       N/A         39  35  85  CALM    29.70S
#TROY SCHOOL    N/A         51  42  71  CALM    29.58S
#UKIAH          N/A         46  38  73  CALM    29.68F
#WESTON 4E      N/A         47  38  71  CALM    29.74S
$$

ORZ505-250810-
JOHN DAY BASIN

CITY            SKY/WX      TMP DP  RH  WIND    PRES   REMARKS
JOHN DAY        PTCLDY      46  34  63  CALM    29.83F
#ANTELOPE 9ESE  N/A         51  38  61  SW5     N/A
#DAYVILLE SCHOOLN/A         51  33  50  CALM    29.81S
#MITCHELL       N/A         49  39  68  CALM    30.01F
#MITCHELL 8NW   N/A         44  34  68  NW1     29.80S
#MONUMENT HS    N/A         55  35  47  CALM    29.80S
#MT. VERNON 5SE N/A         44  32  62  CALM    29.78S
#SPRAY SCHOOL   N/A         54  N/A N/A CALM    N/A
$$

ORZ506-250810-
OCHOCO AND JOHN DAY HIGHLANDS

CITY            SKY/WX      TMP DP  RH  WIND    PRES   REMARKS
#HORSE RIDGE DO N/A         N/A N/A N/A CALM    N/A
#IZEE 6NW       N/A         42  34  73  W2      N/A
#PAULINA ODOT   N/A         45  33  63  CALM    N/A
#PINE MTN OBS   N/A         31  29  92  NW10    N/A
#PRAIRIE CITY   N/A         44  34  68  CALM    29.96S
#SENECA         N/A         42  N/A N/A CALM    N/A
#SENECA 9NW     N/A         41  32  70  CALM    29.71R
$$

ORZ049-250810-
GRANDE RONDE VALLEY

CITY            SKY/WX      TMP DP  RH  WIND    PRES   REMARKS
LA GRANDE       CLOUDY      52  34  50  N9      29.79F
#COVE           N/A         48  42  80  CALM    29.83F
#COVE SCHOOL    N/A         47  40  76  CALM    29.83F
#COVE 6NW       N/A         50  39  66  CALM    29.74F
#ELGIN 3N       N/A         49  40  71  CALM    29.79F
#ELGIN 1E       N/A         50  39  66  CALM    N/A
#IMBLER SCHOOL  N/A         49  37  63  CALM    29.78S
#ISLAND CITY 4N N/A         46  43  89  CALM    29.95F
#LA GRANDE-LEFFEN/A         50  39  66  NW3     29.81S
#UNION 1S       N/A         50  38  63  N1      29.74F
$$

ORZ050-250810-
WALLOWA COUNTY

CITY            SKY/WX      TMP DP  RH  WIND    PRES   REMARKS
JOSEPH AIRPORT  CLOUDY      45  32  60  N5      29.80F
#ENTERPRISE HS  N/A         46  36  68  CALM    29.60F
#IMNAHA SCHOOL  N/A         52  38  59  N1      29.78S
#IMNAHA 10S     N/A         48  35  60  SW1     29.79F
#JOSEPH         N/A         45  34  65  CALM    29.80F
#JOSEPH 3N      N/A         43  30  60  CALM    29.84F
#JOSEPH 3W      N/A         42  35  76  N1      29.66F
#LOSTINE        N/A         48  36  63  CALM    29.53F
#LOSTINE 3SE    N/A         47  35  63  CALM    29.83F
#MT HOWARD 8000 N/A         27  25  92  NW7     29.78F
#PROMISE 1S     N/A         45  34  65  SW3     29.88R
#WALLOWA LAKE   N/A         44  32  62  NE1     29.81F
#WALLOWA SCHOOL N/A         49  38  66  CALM    29.78F



$$



USA.gov is the U.S. government's official web portal to all federal, state and local government web resources and services.